Weather WX

World > North America > United States > Mississippi

Waxhaw, Mississippi Regional Weather

Lat: 33.92N, Lon: 90.97W
Wx Zone: MSZ018
Warning FLW WEATHER ALERT - FLOOD STATEMENT (More Info. Click Here) Warning
Feedback

Waxhaw, MS Regional Weather

Expires:201906260900;;094777
ASUS44 KJAN 260810
RWRMS 

MISSISSIPPI HOURLY WEATHER ROUNDUP
NATIONAL WEATHER SERVICE JACKSON MS
300 AM CDT WED JUN 26 2019

NOTE: "FAIR: INDICATES FEW OR NO CLOUDS BELOW 12,000 FEET WITH NO
SIGNIFICANT WEATHER AND/OR OBSTRUCTIONS TO VISIBILITY.


MSZ001>002-007>008-010>013-018>021-025>028-034>036-260900-
NORTHWEST MISSISSIPPI
  
CITY           SKY/WX    TMP DP  RH WIND       PRES   REMARKS
BATESVILLE     CLOUDY    70  68  94 CALM      30.12S                  
CLEVELAND      FAIR      72  72 100 CALM      30.11R                  
GREENWOOD      FAIR      72  68  87 CALM      30.12S                  
GREENVILLE       N/A    N/A N/A N/A MISG      30.09S                  
OLIVE BRANCH     N/A     70  70 100 SW7       30.12R                  
OXFORD         FAIR      68  66  94 CALM      30.15S                  
TUNICA           N/A     70  66  88 CALM      30.12F                  
WINONA         FAIR      71  71  99 CALM      30.15R                  
$$


SKY/WX - Weather  TMP - Temperature  DP - Dew Point  RH - Relative Humidity
WIND - Wind Direction/Speed PRES - Barometric Pressure VSB - Visibility
WCI - Wind Chill Index E13G22 Wind - East Wind 13 mph/Gusts of 22 mph